Time,TemperatureF,DewpointF,PressureIn,WindDirection,WindDirectionDegrees,WindSpeedMPH,WindSpeedGustMPH,Humidity,HourlyPrecipIn,Conditions,Clouds,dailyrainin,SoftwareType,DateUTC
2013-09-29 00:03:00,65.5,64.9,30.03,North,10,3.5,0.0,98,0.00,RA,,0.00,WeatherDisplay:10.37,2013-09-29 05:03:00,
2013-09-29 00:08:00,65.5,64.9,30.03,WSW,238,3.5,3.5,98,0.00,RA,,0.00,WeatherDisplay:10.37,2013-09-29 05:08:00,
2013-09-29 00:13:00,65.5,64.9,30.03,North,353,3.5,3.5,98,0.00,CLR,,0.00,WeatherDisplay:10.37,2013-09-29 05:13:00,
2013-09-29 00:18:00,65.5,64.9,30.03,NNE,32,2.3,0.0,98,0.00,CLR,,0.00,WeatherDisplay:10.37,2013-09-29 05:18:00,
2013-09-29 00:23:00,65.5,64.9,30.03,NNE,28,3.5,3.5,98,0.00,CLR,,0.00,WeatherDisplay:10.37,2013-09-29 05:23:00,
2013-09-29 00:28:00,65.5,64.9,30.03,NNW,345,3.5,3.5,98,0.00,CLR,,0.00,WeatherDisplay:10.37,2013-09-29 05:28:00,
2013-09-29 00:33:00,65.5,64.9,30.03,North,1,5.8,5.8,98,0.00,CLR,,0.00,WeatherDisplay:10.37,2013-09-29 05:33:00,
2013-09-29 00:38:00,65.3,64.7,30.03,North,11,3.5,3.5,98,0.00,CLR,,0.00,WeatherDisplay:10.37,2013-09-29 05:38:00,
2013-09-29 00:43:00,65.3,64.7,30.03,North,353,3.5,0.0,98,0.00,CLR,,0.00,WeatherDisplay:10.37,2013-09-29 05:43:00,
2013-09-29 00:48:00,65.3,64.7,30.03,North,350,3.5,3.5,98,0.00,CLR,,0.00,WeatherDisplay:10.37,2013-09-29 05:48:00,
2013-09-29 00:53:00,65.3,64.7,30.03,NNE,12,3.5,3.5,98,0.00,CLR,,0.00,WeatherDisplay:10.37,2013-09-29 05:53:00,
2013-09-29 00:58:00,65.3,64.7,30.03,North,353,3.5,3.5,98,0.00,CLR,,0.00,WeatherDisplay:10.37,2013-09-29 05:58:00,
2013-09-29 01:03:00,65.3,64.7,30.03,North,4,3.5,3.5,98,0.00,CLR,,0.00,WeatherDisplay:10.37,2013-09-29 06:03:00,
2013-09-29 01:08:00,65.3,64.7,30.03,North,3,3.5,0.0,98,0.00,CLR,,0.00,WeatherDisplay:10.37,2013-09-29 06:08:00,
2013-09-29 01:13:00,65.3,64.7,30.03,NW,320,2.3,0.0,98,0.00,CLR,,0.00,WeatherDisplay:10.37,2013-09-29 06:13:00,
2013-09-29 01:18:00,65.3,64.7,30.03,North,4,5.8,5.8,98,0.00,CLR,,0.00,WeatherDisplay:10.37,2013-09-29 06:18:00,
2013-09-29 01:23:00,65.1,64.5,30.03,North,3,3.5,3.5,98,0.00,CLR,,0.00,WeatherDisplay:10.37,2013-09-29 06:23:00,
2013-09-29 01:28:00,65.3,64.7,30.03,NNE,15,3.5,3.5,98,0.00,CLR,,0.00,WeatherDisplay:10.37,2013-09-29 06:28:00,
2013-09-29 01:33:00,65.3,64.7,30.03,North,349,4.6,4.6,98,0.00,CLR,,0.00,WeatherDisplay:10.37,2013-09-29 06:33:00,
2013-09-29 01:38:00,65.3,64.7,30.03,North,2,5.8,5.8,98,0.00,CLR,,0.00,WeatherDisplay:10.37,2013-09-29 06:38:00,
2013-09-29 01:43:00,65.1,64.5,30.03,North,357,4.6,4.6,98,0.00,CLR,,0.00,WeatherDisplay:10.37,2013-09-29 06:43:00,
2013-09-29 01:48:00,65.1,64.5,30.03,NNW,344,5.8,5.8,98,0.00,CLR,,0.00,WeatherDisplay:10.37,2013-09-29 06:48:00,
2013-09-29 01:53:00,65.1,64.5,30.03,North,7,3.5,3.5,98,0.00,CLR,,0.00,WeatherDisplay:10.37,2013-09-29 06:53:00,
2013-09-29 01:58:00,65.1,64.5,30.03,NNE,19,3.5,3.5,98,0.00,CLR,,0.00,WeatherDisplay:10.37,2013-09-29 06:58:00,
2013-09-29 02:03:00,64.9,64.4,30.03,North,0,2.3,0.0,98,0.00,CLR,,0.00,WeatherDisplay:10.37,2013-09-29 07:03:00,
2013-09-29 02:08:00,64.9,64.4,30.03,North,357,3.5,0.0,98,0.00,CLR,,0.00,WeatherDisplay:10.37,2013-09-29 07:08:00,
2013-09-29 02:13:00,64.9,64.4,30.00,North,2,4.0,4.0,98,0.00,CLR,,0.00,WeatherDisplay:10.37,2013-09-29 07:13:00,
2013-09-29 02:18:00,64.9,64.4,30.00,North,0,3.5,3.5,98,0.00,CLR,,0.00,WeatherDisplay:10.37,2013-09-29 07:18:00,
2013-09-29 02:23:00,64.9,64.4,30.00,North,0,2.3,2.3,98,0.00,CLR,,0.00,WeatherDisplay:10.37,2013-09-29 07:23:00,
2013-09-29 02:28:00,65.1,64.5,30.03,North,349,3.5,0.0,98,0.00,CLR,,0.00,WeatherDisplay:10.37,2013-09-29 07:28:00,
2013-09-29 02:33:00,65.1,64.5,30.03,North,0,3.5,0.0,98,0.00,CLR,,0.00,WeatherDisplay:10.37,2013-09-29 07:33:00,
2013-09-29 02:38:00,65.1,64.5,30.03,NNE,12,2.3,0.0,98,0.00,CLR,,0.00,WeatherDisplay:10.37,2013-09-29 07:38:00,
2013-09-29 02:43:00,65.1,64.5,30.03,North,6,3.5,3.5,98,0.00,CLR,,0.00,WeatherDisplay:10.37,2013-09-29 07:43:00,
2013-09-29 02:48:00,65.1,64.5,30.03,North,353,4.0,4.0,98,0.00,CLR,,0.00,WeatherDisplay:10.37,2013-09-29 07:48:00,
2013-09-29 02:53:00,65.1,64.5,30.03,North,5,3.5,0.0,98,0.00,CLR,,0.00,WeatherDisplay:10.37,2013-09-29 07:53:00,
2013-09-29 02:58:00,65.1,64.5,30.03,North,0,2.7,2.7,98,0.00,CLR,,0.00,WeatherDisplay:10.37,2013-09-29 07:58:00,
2013-09-29 03:03:00,65.1,64.5,30.03,NNW,345,3.5,3.5,98,0.00,CLR,,0.00,WeatherDisplay:10.37,2013-09-29 08:03:00,
2013-09-29 03:08:00,65.1,64.5,30.03,North,0,3.5,3.5,98,0.00,CLR,,0.00,WeatherDisplay:10.37,2013-09-29 08:08:00,
2013-09-29 03:13:00,65.1,64.5,30.00,NNE,17,3.5,3.5,98,0.00,CLR,,0.00,WeatherDisplay:10.37,2013-09-29 08:13:00,
2013-09-29 03:18:00,65.1,64.5,30.00,North,1,3.5,3.5,98,0.00,CLR,,0.00,WeatherDisplay:10.37,2013-09-29 08:18:00,
2013-09-29 03:23:00,65.1,64.5,30.00,North,349,3.5,3.5,98,0.00,CLR,,0.00,WeatherDisplay:10.37,2013-09-29 08:23:00,
2013-09-29 03:28:00,65.1,64.5,30.00,North,9,3.5,3.5,98,0.00,CLR,,0.00,WeatherDisplay:10.37,2013-09-29 08:28:00,
2013-09-29 03:33:00,65.1,64.5,30.00,North,1,3.5,3.5,98,0.00,CLR,,0.00,WeatherDisplay:10.37,2013-09-29 08:33:00,
2013-09-29 03:38:00,65.1,64.5,30.00,North,357,3.5,3.5,98,0.00,CLR,,0.00,WeatherDisplay:10.37,2013-09-29 08:38:00,
2013-09-29 03:43:00,65.1,64.5,30.00,North,357,3.1,3.1,98,0.00,CLR,,0.00,WeatherDisplay:10.37,2013-09-29 08:43:00,
2013-09-29 03:48:00,65.1,64.5,30.00,North,2,4.6,4.6,98,0.00,CLR,,0.00,WeatherDisplay:10.37,2013-09-29 08:48:00,
2013-09-29 03:53:00,65.1,64.5,30.00,North,10,3.5,0.0,98,0.00,CLR,,0.00,WeatherDisplay:10.37,2013-09-29 08:53:00,
2013-09-29 03:58:00,65.1,64.5,30.00,North,357,2.3,0.0,98,0.00,CLR,,0.00,WeatherDisplay:10.37,2013-09-29 08:58:00,
2013-09-29 04:03:00,65.1,64.5,30.00,NNE,14,2.3,0.0,98,0.00,CLR,,0.00,WeatherDisplay:10.37,2013-09-29 09:03:00,
2013-09-29 04:08:00,65.1,64.5,30.00,NNE,22,3.5,3.5,98,0.00,CLR,,0.00,WeatherDisplay:10.37,2013-09-29 09:08:00,
2013-09-29 04:13:00,65.1,64.5,30.00,NNE,14,3.5,3.5,98,0.00,CLR,,0.00,WeatherDisplay:10.37,2013-09-29 09:13:00,
2013-09-29 04:18:00,65.1,64.5,30.00,North,353,3.5,0.0,98,0.00,CLR,,0.00,WeatherDisplay:10.37,2013-09-29 09:18:00,
2013-09-29 04:23:00,65.1,64.5,30.00,NNE,23,4.6,4.6,98,0.00,CLR,,0.00,WeatherDisplay:10.37,2013-09-29 09:23:00,
2013-09-29 04:28:00,65.1,64.5,30.00,North,353,5.8,5.8,98,0.00,CLR,,0.00,WeatherDisplay:10.37,2013-09-29 09:28:00,
2013-09-29 04:33:00,65.1,64.5,30.00,North,349,8.1,8.1,98,0.00,CLR,,0.00,WeatherDisplay:10.37,2013-09-29 09:33:00,
2013-09-29 04:38:00,65.1,64.5,30.00,NNW,332,5.8,5.8,98,0.00,CLR,,0.00,WeatherDisplay:10.37,2013-09-29 09:38:00,
2013-09-29 04:43:00,65.1,64.5,30.00,NW,310,5.8,5.8,98,0.00,CLR,,0.00,WeatherDisplay:10.37,2013-09-29 09:43:00,
2013-09-29 04:48:00,65.1,64.5,30.00,North,357,3.5,0.0,98,0.00,CLR,,0.00,WeatherDisplay:10.37,2013-09-29 09:48:00,
2013-09-29 04:53:00,65.1,64.5,30.00,South,184,2.3,0.0,98,0.00,CLR,,0.00,WeatherDisplay:10.37,2013-09-29 09:53:00,
2013-09-29 04:58:00,65.1,64.5,30.03,North,11,2.3,0.0,98,0.00,CLR,,0.00,WeatherDisplay:10.37,2013-09-29 09:58:00,
2013-09-29 05:03:00,65.1,64.5,30.03,North,353,2.3,0.0,98,0.00,CLR,,0.00,WeatherDisplay:10.37,2013-09-29 10:03:00,
2013-09-29 05:08:00,65.1,64.5,30.03,North,0,3.5,3.5,98,0.00,CLR,,0.00,WeatherDisplay:10.37,2013-09-29 10:08:00,
2013-09-29 05:13:00,65.1,64.5,30.03,North,357,3.5,3.5,98,0.00,CLR,,0.00,WeatherDisplay:10.37,2013-09-29 10:13:00,
2013-09-29 05:18:00,65.1,64.5,30.03,North,6,3.5,3.5,98,0.00,CLR,,0.00,WeatherDisplay:10.37,2013-09-29 10:18:00,
2013-09-29 05:23:00,65.1,64.5,30.03,SSW,207,5.8,5.8,98,0.00,CLR,,0.00,WeatherDisplay:10.37,2013-09-29 10:23:00,
2013-09-29 05:28:00,65.1,64.5,30.00,NNE,14,3.5,3.5,98,0.00,CLR,,0.00,WeatherDisplay:10.37,2013-09-29 10:28:00,
2013-09-29 05:33:00,65.1,64.5,30.00,NNE,14,3.5,3.5,98,0.00,CLR,,0.00,WeatherDisplay:10.37,2013-09-29 10:33:00,
2013-09-29 05:38:00,65.1,64.5,30.00,NE,35,5.8,5.8,98,0.00,CLR,,0.00,WeatherDisplay:10.37,2013-09-29 10:38:00,
2013-09-29 05:43:00,65.1,64.5,30.00,NE,34,4.0,4.0,98,0.00,CLR,,0.00,WeatherDisplay:10.37,2013-09-29 10:43:00,
2013-09-29 05:48:00,65.1,64.5,30.00,North,357,3.6,3.6,98,0.00,CLR,,0.00,WeatherDisplay:10.37,2013-09-29 10:48:00,
2013-09-29 05:53:00,65.1,64.5,30.00,NNE,12,4.6,4.6,98,0.00,CLR,,0.00,WeatherDisplay:10.37,2013-09-29 10:53:00,
2013-09-29 05:58:00,65.1,64.5,30.00,North,9,5.8,5.8,98,0.00,CLR,,0.00,WeatherDisplay:10.37,2013-09-29 10:58:00,
2013-09-29 06:03:00,65.1,64.5,30.00,NNE,21,3.5,0.0,98,0.00,CLR,,0.00,WeatherDisplay:10.37,2013-09-29 11:03:00,
2013-09-29 06:08:00,65.1,64.5,30.00,WSW,249,3.5,3.5,98,0.00,CLR,,0.00,WeatherDisplay:10.37,2013-09-29 11:08:00,
2013-09-29 06:13:00,65.1,64.5,30.03,North,2,2.3,0.0,98,0.00,CLR,,0.00,WeatherDisplay:10.37,2013-09-29 11:13:00,
2013-09-29 06:18:00,65.1,64.5,30.03,North,1,4.6,4.6,98,0.00,CLR,,0.00,WeatherDisplay:10.37,2013-09-29 11:18:00,
2013-09-29 06:23:00,65.1,64.5,30.03,North,353,3.5,0.0,98,0.00,CLR,,0.00,WeatherDisplay:10.37,2013-09-29 11:23:00,
2013-09-29 06:28:00,65.1,64.5,30.03,NNE,12,2.3,0.0,98,0.00,CLR,,0.00,WeatherDisplay:10.37,2013-09-29 11:28:00,
2013-09-29 06:33:00,65.1,64.5,30.03,NNE,18,2.3,0.0,98,0.00,CLR,,0.00,WeatherDisplay:10.37,2013-09-29 11:33:00,
2013-09-29 06:38:00,65.1,64.5,30.03,North,0,3.5,0.0,98,0.00,CLR,,0.00,WeatherDisplay:10.37,2013-09-29 11:38:00,
2013-09-29 06:43:00,65.1,64.5,30.03,North,0,2.3,2.3,98,0.00,CLR,,0.00,WeatherDisplay:10.37,2013-09-29 11:43:00,
2013-09-29 06:48:00,65.1,64.5,30.03,NNW,345,3.5,3.5,98,0.00,CLR,,0.00,WeatherDisplay:10.37,2013-09-29 11:48:00,
2013-09-29 06:53:00,65.1,64.5,30.03,North,357,3.5,3.5,98,0.00,CLR,,0.00,WeatherDisplay:10.37,2013-09-29 11:53:00,
2013-09-29 06:58:00,65.1,64.5,30.03,North,8,3.5,3.5,98,0.00,CLR,,0.00,WeatherDisplay:10.37,2013-09-29 11:58:00,
2013-09-29 07:03:00,65.1,64.5,30.03,North,5,2.3,0.0,98,0.00,CLR,,0.00,WeatherDisplay:10.37,2013-09-29 12:03:00,
2013-09-29 07:08:00,65.1,64.5,30.03,North,4,0.0,0.0,98,0.00,CLR,,0.00,WeatherDisplay:10.37,2013-09-29 12:08:00,
2013-09-29 07:14:00,65.1,64.5,30.03,North,353,3.5,3.5,98,0.00,CLR,,0.00,WeatherDisplay:10.37,2013-09-29 12:14:00,
2013-09-29 07:19:00,65.1,64.5,30.03,North,11,2.3,0.0,98,0.00,CLR,,0.00,WeatherDisplay:10.37,2013-09-29 12:19:00,
2013-09-29 07:24:00,65.1,64.5,30.03,NNE,13,0.0,0.0,98,0.00,CLR,,0.00,WeatherDisplay:10.37,2013-09-29 12:24:00,
2013-09-29 07:29:00,65.1,64.5,30.03,NNE,16,0.0,0.0,98,0.00,CLR,,0.00,WeatherDisplay:10.37,2013-09-29 12:29:00,
2013-09-29 07:34:00,65.1,64.5,30.03,North,357,2.3,0.0,98,0.00,CLR,,0.00,WeatherDisplay:10.37,2013-09-29 12:34:00,
2013-09-29 07:39:00,65.1,64.5,30.03,North,8,2.3,2.3,98,0.00,CLR,,0.00,WeatherDisplay:10.37,2013-09-29 12:39:00,
2013-09-29 07:44:00,65.1,64.5,30.03,North,5,3.5,0.0,98,0.00,CLR,,0.00,WeatherDisplay:10.37,2013-09-29 12:44:00,
2013-09-29 07:49:00,65.1,64.5,30.03,North,353,2.3,2.7,98,0.00,CLR,,0.00,WeatherDisplay:10.37,2013-09-29 12:49:00,
2013-09-29 07:54:00,65.1,64.5,30.03,North,0,3.5,3.5,98,0.00,CLR,,0.00,WeatherDisplay:10.37,2013-09-29 12:54:00,
2013-09-29 07:59:00,65.1,64.5,30.03,NNE,17,3.5,3.5,98,0.00,CLR,,0.00,WeatherDisplay:10.37,2013-09-29 12:59:00,
2013-09-29 08:04:00,65.1,64.5,30.03,North,5,3.6,3.6,98,0.00,CLR,,0.00,WeatherDisplay:10.37,2013-09-29 13:04:00,
2013-09-29 08:09:00,65.1,64.5,30.03,North,357,2.3,0.0,98,0.00,CLR,,0.00,WeatherDisplay:10.37,2013-09-29 13:09:00,
2013-09-29 08:14:00,65.1,64.5,30.03,NNE,15,3.5,3.5,98,0.00,CLR,,0.00,WeatherDisplay:10.37,2013-09-29 13:14:00,
2013-09-29 08:19:00,65.1,64.5,30.03,NNW,333,3.5,3.5,98,0.00,CLR,,0.00,WeatherDisplay:10.37,2013-09-29 13:19:00,
2013-09-29 08:24:00,65.1,64.5,30.03,North,0,3.5,3.5,98,0.00,CLR,,0.00,WeatherDisplay:10.37,2013-09-29 13:24:00,
2013-09-29 08:29:00,65.1,64.5,30.03,NNE,23,4.6,4.6,98,0.00,CLR,,0.00,WeatherDisplay:10.37,2013-09-29 13:29:00,
2013-09-29 08:34:00,65.1,64.5,30.03,North,353,3.5,3.5,98,0.00,CLR,,0.00,WeatherDisplay:10.37,2013-09-29 13:34:00,
2013-09-29 08:39:00,65.1,64.5,30.03,NNE,21,8.1,8.1,98,0.00,CLR,,0.00,WeatherDisplay:10.37,2013-09-29 13:39:00,
2013-09-29 08:44:00,65.1,64.5,30.03,North,353,3.5,3.5,98,0.00,CLR,,0.00,WeatherDisplay:10.37,2013-09-29 13:44:00,
2013-09-29 08:49:00,65.1,64.5,30.03,North,357,3.6,3.6,98,0.00,CLR,,0.00,WeatherDisplay:10.37,2013-09-29 13:49:00,
2013-09-29 08:54:00,65.1,64.5,30.03,North,349,5.8,5.8,98,0.00,CLR,,0.00,WeatherDisplay:10.37,2013-09-29 13:54:00,
2013-09-29 08:59:00,65.1,64.5,30.03,North,6,5.8,5.8,98,0.00,CLR,,0.00,WeatherDisplay:10.37,2013-09-29 13:59:00,
2013-09-29 09:04:00,65.1,64.5,30.03,North,357,3.5,3.5,98,0.00,CLR,,0.00,WeatherDisplay:10.37,2013-09-29 14:04:00,
2013-09-29 09:09:00,65.1,64.5,30.03,North,4,3.5,3.5,98,0.00,CLR,,0.00,WeatherDisplay:10.37,2013-09-29 14:09:00,
2013-09-29 09:14:00,65.1,64.5,30.03,North,6,5.8,5.8,98,0.00,CLR,,0.00,WeatherDisplay:10.37,2013-09-29 14:14:00,
2013-09-29 09:19:00,65.1,64.5,30.03,NNE,25,4.6,4.6,98,0.00,CLR,,0.00,WeatherDisplay:10.37,2013-09-29 14:19:00,
2013-09-29 09:24:00,65.1,64.5,30.03,North,350,5.8,5.8,98,0.00,CLR,,0.00,WeatherDisplay:10.37,2013-09-29 14:24:00,
2013-09-29 09:29:00,65.1,64.5,30.03,North,0,5.8,5.8,98,0.00,CLR,,0.00,WeatherDisplay:10.37,2013-09-29 14:29:00,
2013-09-29 09:34:00,65.1,64.5,30.03,North,357,5.8,5.8,98,0.00,CLR,,0.00,WeatherDisplay:10.37,2013-09-29 14:34:00,
2013-09-29 09:39:00,65.1,64.5,30.03,North,3,3.5,3.5,98,0.00,CLR,,0.00,WeatherDisplay:10.37,2013-09-29 14:39:00,
2013-09-29 09:44:00,65.1,64.5,30.03,North,10,4.6,0.0,98,0.00,CLR,,0.00,WeatherDisplay:10.37,2013-09-29 14:44:00,
2013-09-29 09:49:00,65.1,64.5,30.03,NNW,331,4.6,4.6,98,0.00,CLR,,0.00,WeatherDisplay:10.37,2013-09-29 14:49:00,
2013-09-29 09:54:00,65.1,64.5,30.03,NNW,346,3.5,3.5,98,0.00,CLR,,0.00,WeatherDisplay:10.37,2013-09-29 14:54:00,
2013-09-29 09:59:00,65.1,64.5,30.06,North,0,3.5,0.0,98,0.00,CLR,,0.00,WeatherDisplay:10.37,2013-09-29 14:59:00,
2013-09-29 10:04:00,65.5,64.9,30.06,NNW,335,2.3,2.3,98,0.00,CLR,,0.00,WeatherDisplay:10.37,2013-09-29 15:04:00,
2013-09-29 10:09:00,65.3,64.7,30.06,NNE,23,3.5,0.0,98,0.00,CLR,,0.00,WeatherDisplay:10.37,2013-09-29 15:09:00,
2013-09-29 10:14:00,65.3,64.7,30.06,SW,220,2.3,0.0,98,0.00,CLR,,0.00,WeatherDisplay:10.37,2013-09-29 15:14:00,
2013-09-29 10:19:00,65.3,64.7,30.06,NNE,13,2.7,0.0,98,0.00,CLR,,0.00,WeatherDisplay:10.37,2013-09-29 15:19:00,
2013-09-29 10:24:00,65.7,65.1,30.06,NNE,22,0.0,0.0,98,0.00,CLR,,0.00,WeatherDisplay:10.37,2013-09-29 15:24:00,
2013-09-29 10:29:00,66.2,65.6,30.06,SW,217,3.5,0.0,98,0.00,CLR,,0.00,WeatherDisplay:10.37,2013-09-29 15:29:00,
2013-09-29 10:34:00,66.6,66.0,30.06,North,5,3.5,0.0,98,0.00,CLR,,0.00,WeatherDisplay:10.37,2013-09-29 15:34:00,
2013-09-29 10:39:00,66.9,66.3,30.06,SSW,204,2.3,0.0,98,0.00,CLR,,0.00,WeatherDisplay:10.37,2013-09-29 15:39:00,
2013-09-29 10:44:00,67.3,66.7,30.06,NNE,20,3.5,0.0,98,0.00,CLR,,0.00,WeatherDisplay:10.37,2013-09-29 15:44:00,
2013-09-29 10:49:00,67.6,67.1,30.06,NNE,24,3.5,3.5,98,0.00,CLR,,0.00,WeatherDisplay:10.37,2013-09-29 15:49:00,
2013-09-29 10:54:00,67.8,67.2,30.06,North,357,3.5,0.0,98,0.00,CLR,,0.00,WeatherDisplay:10.37,2013-09-29 15:54:00,
2013-09-29 10:59:00,68.0,67.4,30.06,SSW,193,3.5,0.0,98,0.00,CLR,,0.00,WeatherDisplay:10.37,2013-09-29 15:59:00,
2013-09-29 11:04:00,68.4,67.8,30.06,West,261,3.5,3.5,98,0.00,CLR,,0.00,WeatherDisplay:10.37,2013-09-29 16:04:00,
2013-09-29 11:09:00,68.5,68.0,30.06,North,357,3.5,4.0,98,0.00,CLR,,0.00,WeatherDisplay:10.37,2013-09-29 16:09:00,
2013-09-29 11:14:00,68.7,68.1,30.06,North,4,5.8,5.8,98,0.00,CLR,,0.00,WeatherDisplay:10.37,2013-09-29 16:14:00,
2013-09-29 11:19:00,69.1,68.5,30.06,SSW,203,3.5,3.5,98,0.00,CLR,,0.00,WeatherDisplay:10.37,2013-09-29 16:19:00,
2013-09-29 11:24:00,69.3,68.7,30.06,NE,38,3.1,0.0,98,0.00,CLR,,0.00,WeatherDisplay:10.37,2013-09-29 16:24:00,
2013-09-29 11:29:00,69.4,68.9,30.06,East,88,3.5,3.5,98,0.00,CLR,,0.00,WeatherDisplay:10.37,2013-09-29 16:29:00,
2013-09-29 11:34:00,69.4,68.9,30.06,South,177,3.5,3.5,98,0.00,CLR,,0.00,WeatherDisplay:10.37,2013-09-29 16:34:00,
2013-09-29 11:39:00,69.8,69.2,30.06,North,8,3.6,0.0,98,0.00,CLR,,0.00,WeatherDisplay:10.37,2013-09-29 16:39:00,
2013-09-29 11:44:00,69.8,69.2,30.06,NNE,30,4.0,4.0,98,0.00,CLR,,0.00,WeatherDisplay:10.37,2013-09-29 16:44:00,
2013-09-29 11:49:00,70.2,69.6,30.06,SSW,196,4.6,4.6,98,0.00,CLR,,0.00,WeatherDisplay:10.37,2013-09-29 16:49:00,
2013-09-29 11:54:00,70.7,70.1,30.06,North,0,3.5,3.5,98,0.00,CLR,,0.00,WeatherDisplay:10.37,2013-09-29 16:54:00,
2013-09-29 11:59:00,70.7,70.1,30.03,SW,223,3.5,3.5,98,0.00,CLR,,0.00,WeatherDisplay:10.37,2013-09-29 16:59:00,
2013-09-29 12:04:00,70.7,70.1,30.03,NNE,13,5.8,5.8,98,0.00,CLR,,0.00,WeatherDisplay:10.37,2013-09-29 17:04:00,
2013-09-29 12:09:00,70.9,70.3,30.03,NE,35,8.1,8.1,98,0.00,CLR,,0.00,WeatherDisplay:10.37,2013-09-29 17:09:00,
2013-09-29 12:14:00,71.4,70.8,30.03,West,277,5.8,5.8,98,0.00,CLR,,0.00,WeatherDisplay:10.37,2013-09-29 17:14:00,
2013-09-29 12:19:00,71.4,70.8,30.03,NNE,17,5.8,5.8,98,0.00,CLR,,0.00,WeatherDisplay:10.37,2013-09-29 17:19:00,
2013-09-29 12:24:00,71.8,71.2,30.03,NNW,338,3.5,3.5,98,0.00,CLR,,0.00,WeatherDisplay:10.37,2013-09-29 17:24:00,
2013-09-29 12:29:00,72.0,71.4,30.03,NNE,19,3.5,3.5,98,0.00,CLR,,0.00,WeatherDisplay:10.37,2013-09-29 17:29:00,
2013-09-29 12:34:00,72.1,71.5,30.03,NNE,22,8.0,8.0,98,0.00,CLR,,0.00,WeatherDisplay:10.37,2013-09-29 17:34:00,
2013-09-29 12:39:00,72.7,72.1,30.03,NNE,13,6.9,6.9,98,0.00,CLR,,0.00,WeatherDisplay:10.37,2013-09-29 17:39:00,
2013-09-29 12:44:00,72.9,72.3,30.03,NW,319,8.1,8.1,98,0.00,CLR,,0.00,WeatherDisplay:10.37,2013-09-29 17:44:00,
2013-09-29 12:49:00,72.9,72.3,30.03,North,10,5.8,5.8,98,0.00,CLR,,0.00,WeatherDisplay:10.37,2013-09-29 17:49:00,
2013-09-29 12:54:00,73.0,72.4,30.03,North,4,5.8,5.8,98,0.00,CLR,,0.00,WeatherDisplay:10.37,2013-09-29 17:54:00,
2013-09-29 12:59:00,73.2,72.6,30.03,NNE,25,9.2,9.2,98,0.00,CLR,,0.00,WeatherDisplay:10.37,2013-09-29 17:59:00,
2013-09-29 13:04:00,73.4,72.8,30.03,NE,38,5.8,5.8,98,0.00,CLR,,0.00,WeatherDisplay:10.37,2013-09-29 18:04:00,
2013-09-29 13:09:00,73.6,73.0,30.03,North,2,5.8,5.8,98,0.00,CLR,,0.00,WeatherDisplay:10.37,2013-09-29 18:09:00,
2013-09-29 13:14:00,73.6,73.0,30.00,North,357,5.8,5.8,98,0.00,CLR,,0.00,WeatherDisplay:10.37,2013-09-29 18:14:00,
2013-09-29 13:19:00,73.8,73.2,30.00,North,0,11.5,11.5,98,0.00,CLR,,0.00,WeatherDisplay:10.37,2013-09-29 18:19:00,
2013-09-29 13:24:00,73.9,73.3,30.00,North,10,5.8,5.8,98,0.00,CLR,,0.00,WeatherDisplay:10.37,2013-09-29 18:24:00,
2013-09-29 13:29:00,73.9,73.3,30.00,North,3,5.8,5.8,98,0.00,CLR,,0.00,WeatherDisplay:10.37,2013-09-29 18:29:00,
2013-09-29 13:34:00,74.1,73.5,30.00,NNE,18,3.5,3.5,98,0.00,CLR,,0.00,WeatherDisplay:10.37,2013-09-29 18:34:00,
2013-09-29 13:39:00,74.3,73.7,30.00,NNE,19,5.8,5.8,98,0.00,CLR,,0.00,WeatherDisplay:10.37,2013-09-29 18:39:00,
2013-09-29 13:44:00,74.5,73.9,30.00,North,11,8.1,8.1,98,0.00,CLR,,0.00,WeatherDisplay:10.37,2013-09-29 18:44:00,
2013-09-29 13:49:00,74.5,73.9,30.00,North,9,3.5,3.5,98,0.00,CLR,,0.00,WeatherDisplay:10.37,2013-09-29 18:49:00,
2013-09-29 13:54:00,74.7,74.1,30.00,NNW,345,5.8,5.8,98,0.00,CLR,,0.00,WeatherDisplay:10.37,2013-09-29 18:54:00,
2013-09-29 13:59:00,74.7,74.1,29.97,SW,218,4.0,4.0,98,0.00,CLR,,0.00,WeatherDisplay:10.37,2013-09-29 18:59:00,
2013-09-29 14:04:00,75.0,74.4,29.97,NNW,345,5.8,5.8,98,0.00,CLR,,0.00,WeatherDisplay:10.37,2013-09-29 19:04:00,
2013-09-29 14:09:00,75.0,74.4,29.97,North,353,5.8,5.8,98,0.00,CLR,,0.00,WeatherDisplay:10.37,2013-09-29 19:09:00,
2013-09-29 14:14:00,75.0,74.4,29.97,North,353,5.8,5.8,98,0.00,CLR,,0.00,WeatherDisplay:10.37,2013-09-29 19:14:00,
2013-09-29 14:19:00,74.8,74.2,29.97,NNE,22,3.5,3.6,98,0.00,CLR,,0.00,WeatherDisplay:10.37,2013-09-29 19:19:00,
2013-09-29 14:24:00,75.2,74.6,29.97,North,11,5.8,5.8,98,0.00,CLR,,0.00,WeatherDisplay:10.37,2013-09-29 19:24:00,
2013-09-29 14:29:00,75.9,75.3,29.97,North,6,4.9,4.9,98,0.00,CLR,,0.00,WeatherDisplay:10.37,2013-09-29 19:29:00,
2013-09-29 14:34:00,76.6,76.0,29.97,NNW,344,5.8,5.8,98,0.00,CLR,,0.00,WeatherDisplay:10.37,2013-09-29 19:34:00,
2013-09-29 14:39:00,77.0,76.4,29.97,NNE,30,5.8,5.8,98,0.00,CLR,,0.00,WeatherDisplay:10.37,2013-09-29 19:39:00,
2013-09-29 14:44:00,77.4,76.8,29.97,North,11,5.8,5.8,98,0.00,CLR,,0.00,WeatherDisplay:10.37,2013-09-29 19:44:00,
2013-09-29 14:48:00,77.2,76.6,29.97,North,357,5.8,6.3,98,0.00,CLR,,0.00,WeatherDisplay:10.37,2013-09-29 19:48:00,
2013-09-29 14:53:00,77.0,76.4,29.97,ESE,102,3.5,0.0,98,0.00,CLR,,0.00,WeatherDisplay:10.37,2013-09-29 19:53:00,
2013-09-29 14:59:00,76.6,76.0,29.97,East,82,4.6,4.6,98,0.00,CLR,,0.00,WeatherDisplay:10.37,2013-09-29 19:59:00,
2013-09-29 15:04:00,75.9,75.3,29.97,NNE,14,8.1,8.1,98,0.00,CLR,,0.00,WeatherDisplay:10.37,2013-09-29 20:04:00,
2013-09-29 15:09:00,75.7,75.1,29.97,North,353,3.6,3.6,98,0.00,CLR,,0.00,WeatherDisplay:10.37,2013-09-29 20:09:00,
2013-09-29 15:14:00,75.9,75.3,29.94,South,174,3.5,3.5,98,0.00,CLR,,0.00,WeatherDisplay:10.37,2013-09-29 20:14:00,
2013-09-29 15:19:00,75.9,75.3,29.94,NNW,344,3.6,3.6,98,0.00,CLR,,0.00,WeatherDisplay:10.37,2013-09-29 20:19:00,
2013-09-29 15:24:00,75.7,75.1,29.94,NNE,16,8.1,8.1,98,0.00,CLR,,0.00,WeatherDisplay:10.37,2013-09-29 20:24:00,
2013-09-29 15:29:00,75.9,75.3,29.94,ENE,71,5.8,5.8,98,0.00,CLR,,0.00,WeatherDisplay:10.37,2013-09-29 20:29:00,
2013-09-29 15:34:00,76.1,75.5,29.94,NNW,344,3.5,0.0,98,0.00,CLR,,0.00,WeatherDisplay:10.37,2013-09-29 20:34:00,
2013-09-29 15:39:00,76.5,75.9,29.94,NE,45,2.3,2.3,98,0.00,CLR,,0.00,WeatherDisplay:10.37,2013-09-29 20:39:00,
2013-09-29 15:44:00,76.5,75.9,29.94,North,0,5.8,0.0,98,0.00,CLR,,0.00,WeatherDisplay:10.37,2013-09-29 20:44:00,
2013-09-29 15:49:00,76.5,75.9,29.94,SSW,193,5.8,5.8,98,0.00,CLR,,0.00,WeatherDisplay:10.37,2013-09-29 20:49:00,
2013-09-29 15:54:00,76.6,76.0,29.94,NNE,19,2.3,0.0,98,0.00,CLR,,0.00,WeatherDisplay:10.37,2013-09-29 20:54:00,
2013-09-29 15:59:00,76.8,76.2,29.94,NNE,17,3.5,4.0,98,0.00,CLR,,0.00,WeatherDisplay:10.37,2013-09-29 20:59:00,
2013-09-29 16:04:00,76.8,76.2,29.94,ENE,62,0.0,0.0,98,0.00,CLR,,0.00,WeatherDisplay:10.37,2013-09-29 21:04:00,
2013-09-29 16:09:00,77.0,76.4,29.94,West,279,2.3,0.0,98,0.00,CLR,,0.00,WeatherDisplay:10.37,2013-09-29 21:09:00,
2013-09-29 16:14:00,77.0,76.4,29.94,NNE,14,4.6,4.6,98,0.00,CLR,,0.00,WeatherDisplay:10.37,2013-09-29 21:14:00,
2013-09-29 16:19:00,77.0,76.4,29.94,NNE,16,5.8,5.8,98,0.00,CLR,,0.00,WeatherDisplay:10.37,2013-09-29 21:19:00,
2013-09-29 16:24:00,77.0,76.4,29.94,NE,44,0.0,0.0,98,0.00,CLR,,0.00,WeatherDisplay:10.37,2013-09-29 21:24:00,
2013-09-29 16:29:00,77.2,76.6,29.94,West,268,3.5,3.5,98,0.00,CLR,,0.00,WeatherDisplay:10.37,2013-09-29 21:29:00,
2013-09-29 16:34:00,77.2,76.6,29.94,SSW,197,3.5,3.5,98,0.00,CLR,,0.00,WeatherDisplay:10.37,2013-09-29 21:34:00,
2013-09-29 16:39:00,77.0,76.4,29.94,WSW,245,3.5,3.5,98,0.00,CLR,,0.00,WeatherDisplay:10.37,2013-09-29 21:39:00,
2013-09-29 16:44:00,77.2,76.6,29.94,SSW,198,3.5,3.5,98,0.00,CLR,,0.00,WeatherDisplay:10.37,2013-09-29 21:44:00,
2013-09-29 16:49:00,77.2,76.6,29.94,NNE,13,2.2,0.0,98,0.00,CLR,,0.00,WeatherDisplay:10.37,2013-09-29 21:49:00,
2013-09-29 16:54:00,77.0,76.4,29.94,North,350,2.3,2.3,98,0.00,CLR,,0.00,WeatherDisplay:10.37,2013-09-29 21:54:00,
2013-09-29 16:59:00,77.4,76.8,29.94,North,0,3.5,3.5,98,0.00,CLR,,0.00,WeatherDisplay:10.37,2013-09-29 21:59:00,
2013-09-29 17:04:00,77.5,76.9,29.94,SW,231,3.5,3.5,98,0.00,CLR,,0.00,WeatherDisplay:10.37,2013-09-29 22:04:00,
2013-09-29 17:09:00,77.2,76.6,29.94,North,8,3.5,3.5,98,0.00,CLR,,0.00,WeatherDisplay:10.37,2013-09-29 22:09:00,
2013-09-29 17:14:00,77.2,76.6,29.94,North,0,2.3,0.0,98,0.00,CLR,,0.00,WeatherDisplay:10.37,2013-09-29 22:14:00,
2013-09-29 17:19:00,77.2,76.0,29.94,NNE,19,3.5,3.5,96,0.00,CLR,,0.00,WeatherDisplay:10.37,2013-09-29 22:19:00,
2013-09-29 17:24:00,77.2,75.6,29.94,North,357,2.3,2.3,95,0.00,CLR,,0.00,WeatherDisplay:10.37,2013-09-29 22:24:00,
2013-09-29 17:29:00,77.2,75.6,29.91,NNE,21,2.3,2.3,95,0.00,CLR,,0.00,WeatherDisplay:10.37,2013-09-29 22:29:00,
2013-09-29 17:34:00,77.2,70.2,29.91,SSW,197,2.3,0.0,79,0.00,CLR,,0.00,WeatherDisplay:10.37,2013-09-29 22:34:00,
2013-09-29 17:39:00,77.2,67.5,29.91,SE,140,0.0,0.0,72,0.00,CLR,,0.00,WeatherDisplay:10.37,2013-09-29 22:39:00,
2013-09-29 17:44:00,77.0,65.2,29.91,SSW,194,0.0,0.0,67,0.00,CLR,,0.00,WeatherDisplay:10.37,2013-09-29 22:44:00,
2013-09-29 17:49:00,76.8,63.3,29.91,South,181,3.5,0.0,63,0.00,CLR,,0.00,WeatherDisplay:10.37,2013-09-29 22:49:00,
2013-09-29 17:54:00,77.0,62.5,29.91,NNW,329,2.3,2.3,61,0.00,CLR,,0.00,WeatherDisplay:10.37,2013-09-29 22:54:00,
2013-09-29 17:59:00,77.0,62.5,29.91,NNE,15,0.0,0.0,61,0.00,CLR,,0.00,WeatherDisplay:10.37,2013-09-29 22:59:00,
2013-09-29 18:04:00,77.0,62.5,29.91,North,10,2.3,0.0,61,0.00,CLR,,0.00,WeatherDisplay:10.37,2013-09-29 23:04:00,
2013-09-29 18:09:00,77.0,62.5,29.91,North,0,3.5,0.0,61,0.00,CLR,,0.00,WeatherDisplay:10.37,2013-09-29 23:09:00,
2013-09-29 18:14:00,77.0,62.5,29.91,SSW,199,2.3,0.0,61,0.00,CLR,,0.00,WeatherDisplay:10.37,2013-09-29 23:14:00,
2013-09-29 18:19:00,77.0,62.5,29.91,WNW,293,0.0,0.0,61,0.00,CLR,,0.00,WeatherDisplay:10.37,2013-09-29 23:19:00,
2013-09-29 18:24:00,76.1,61.2,29.91,SW,227,2.3,0.0,60,0.00,CLR,,0.00,WeatherDisplay:10.37,2013-09-29 23:24:00,
2013-09-29 18:29:00,75.9,60.6,29.91,SSW,199,0.0,0.0,59,0.00,CLR,,0.00,WeatherDisplay:10.37,2013-09-29 23:29:00,
2013-09-29 18:34:00,75.9,60.6,29.91,SSW,206,3.5,0.0,59,0.00,CLR,,0.00,WeatherDisplay:10.37,2013-09-29 23:34:00,
2013-09-29 18:39:00,75.9,60.6,29.91,SSW,195,0.0,0.0,59,0.00,CLR,,0.00,WeatherDisplay:10.37,2013-09-29 23:39:00,
2013-09-29 18:44:00,75.9,60.6,29.91,SSW,213,0.0,0.0,59,0.00,CLR,,0.00,WeatherDisplay:10.37,2013-09-29 23:44:00,
2013-09-29 18:49:00,75.9,60.6,29.91,SW,220,0.0,0.0,59,0.00,CLR,,0.00,WeatherDisplay:10.37,2013-09-29 23:49:00,
2013-09-29 18:54:00,75.9,60.6,29.91,SW,220,0.0,0.0,59,0.00,CLR,,0.00,WeatherDisplay:10.37,2013-09-29 23:54:00,
2013-09-29 18:59:00,74.1,60.3,29.91,SW,220,0.0,0.0,62,0.00,CLR,,0.00,WeatherDisplay:10.37,2013-09-29 23:59:00,
2013-09-29 19:04:00,74.1,60.3,29.91,SW,221,0.0,0.0,62,0.00,CLR,,0.00,WeatherDisplay:10.37,2013-09-30 00:04:00,
2013-09-29 19:09:00,73.4,59.6,29.91,SW,221,0.0,0.0,62,0.00,CLR,,0.00,WeatherDisplay:10.37,2013-09-30 00:09:00,
2013-09-29 19:14:00,73.0,59.2,29.91,SW,221,0.0,0.0,62,0.00,CLR,,0.00,WeatherDisplay:10.37,2013-09-30 00:14:00,
2013-09-29 19:19:00,73.0,59.2,29.91,SW,221,0.0,0.0,62,0.00,CLR,,0.00,WeatherDisplay:10.37,2013-09-30 00:19:00,
2013-09-29 19:24:00,72.3,58.6,29.91,SW,221,0.0,0.0,62,0.00,CLR,,0.00,WeatherDisplay:10.37,2013-09-30 00:24:00,
2013-09-29 19:29:00,72.3,58.6,29.91,SW,221,0.0,0.0,62,0.00,CLR,,0.00,WeatherDisplay:10.37,2013-09-30 00:29:00,
2013-09-29 19:34:00,71.8,58.1,29.91,SW,221,0.0,0.0,62,0.00,CLR,,0.00,WeatherDisplay:10.37,2013-09-30 00:34:00,
2013-09-29 19:39:00,71.8,58.1,29.91,SW,221,0.0,0.0,62,0.00,CLR,,0.00,WeatherDisplay:10.37,2013-09-30 00:39:00,
2013-09-29 19:44:00,71.8,58.1,29.91,SW,221,0.0,0.0,62,0.00,CLR,,0.00,WeatherDisplay:10.37,2013-09-30 00:44:00,
2013-09-29 19:49:00,71.8,58.1,29.91,SW,221,0.0,0.0,62,0.00,CLR,,0.00,WeatherDisplay:10.37,2013-09-30 00:49:00,
2013-09-29 19:54:00,71.8,58.1,29.91,SW,221,0.0,0.0,62,0.00,CLR,,0.00,WeatherDisplay:10.37,2013-09-30 00:54:00,
2013-09-29 19:59:00,71.8,58.1,29.91,SW,221,0.0,0.0,62,0.00,CLR,,0.00,WeatherDisplay:10.37,2013-09-30 00:59:00,
2013-09-29 20:04:00,71.8,58.1,29.91,SW,221,0.0,0.0,62,0.00,CLR,,0.00,WeatherDisplay:10.37,2013-09-30 01:04:00,
2013-09-29 20:09:00,71.8,58.1,29.91,SW,221,0.0,0.0,62,0.00,CLR,,0.00,WeatherDisplay:10.37,2013-09-30 01:09:00,
2013-09-29 20:14:00,70.2,57.0,29.91,SW,221,0.0,0.0,63,0.00,CLR,,0.00,WeatherDisplay:10.37,2013-09-30 01:14:00,
2013-09-29 20:19:00,70.0,57.2,29.91,SW,221,0.0,0.0,64,0.00,CLR,,0.00,WeatherDisplay:10.37,2013-09-30 01:19:00,
2013-09-29 20:24:00,69.6,57.8,29.91,SW,221,0.0,0.0,66,0.00,CLR,,0.00,WeatherDisplay:10.37,2013-09-30 01:24:00,
2013-09-29 20:29:00,69.4,58.0,29.91,SW,221,0.0,0.0,67,0.00,CLR,,0.00,WeatherDisplay:10.37,2013-09-30 01:29:00,
2013-09-29 20:34:00,69.3,58.2,29.91,SW,221,0.0,0.0,68,0.00,CLR,,0.00,WeatherDisplay:10.37,2013-09-30 01:34:00,
2013-09-29 20:39:00,69.3,58.2,29.91,SW,221,0.0,0.0,68,0.00,CLR,,0.00,WeatherDisplay:10.37,2013-09-30 01:39:00,
2013-09-29 20:44:00,69.3,58.2,29.94,SW,221,0.0,0.0,68,0.00,CLR,,0.00,WeatherDisplay:10.37,2013-09-30 01:44:00,
2013-09-29 20:49:00,69.3,58.2,29.94,SW,221,0.0,0.0,68,0.00,CLR,,0.00,WeatherDisplay:10.37,2013-09-30 01:49:00,
2013-09-29 20:54:00,68.4,58.2,29.94,SW,221,0.0,0.0,70,0.00,CLR,,0.00,WeatherDisplay:10.37,2013-09-30 01:54:00,
2013-09-29 20:59:00,68.4,58.2,29.94,SW,221,0.0,0.0,70,0.00,CLR,,0.00,WeatherDisplay:10.37,2013-09-30 01:59:00,
2013-09-29 21:04:00,68.4,58.2,29.94,SW,221,0.0,0.0,70,0.00,CLR,,0.00,WeatherDisplay:10.37,2013-09-30 02:04:00,
2013-09-29 21:09:00,68.2,58.0,29.94,SW,221,0.0,0.0,70,0.00,CLR,,0.00,WeatherDisplay:10.37,2013-09-30 02:09:00,
2013-09-29 21:14:00,68.0,58.2,29.94,SW,223,0.0,0.0,71,0.00,CLR,,0.00,WeatherDisplay:10.37,2013-09-30 02:14:00,
2013-09-29 21:19:00,68.0,58.2,29.94,North,8,0.0,0.0,71,0.00,CLR,,0.00,WeatherDisplay:10.37,2013-09-30 02:19:00,
2013-09-29 21:24:00,68.0,58.2,29.94,North,7,0.0,0.0,71,0.00,CLR,,0.00,WeatherDisplay:10.37,2013-09-30 02:24:00,
2013-09-29 21:29:00,67.8,58.1,29.94,North,7,0.0,0.0,71,0.00,CLR,,0.00,WeatherDisplay:10.37,2013-09-30 02:29:00,
2013-09-29 21:34:00,67.6,57.5,29.94,North,7,0.0,0.0,70,0.00,CLR,,0.00,WeatherDisplay:10.37,2013-09-30 02:34:00,
2013-09-29 21:39:00,67.6,57.1,29.94,North,7,0.0,0.0,69,0.00,CLR,,0.00,WeatherDisplay:10.37,2013-09-30 02:39:00,
2013-09-29 21:44:00,67.6,57.1,29.94,North,7,0.0,0.0,69,0.00,CLR,,0.00,WeatherDisplay:10.37,2013-09-30 02:44:00,
2013-09-29 21:49:00,67.6,56.7,29.94,North,7,0.0,0.0,68,0.00,CLR,,0.00,WeatherDisplay:10.37,2013-09-30 02:49:00,
2013-09-29 21:54:00,67.6,56.7,29.94,North,7,0.0,0.0,68,0.00,CLR,,0.00,WeatherDisplay:10.37,2013-09-30 02:54:00,
2013-09-29 21:59:00,67.6,56.7,29.94,North,7,0.0,0.0,68,0.00,CLR,,0.00,WeatherDisplay:10.37,2013-09-30 02:59:00,
2013-09-29 22:04:00,67.5,56.5,29.94,North,7,0.0,0.0,68,0.00,CLR,,0.00,WeatherDisplay:10.37,2013-09-30 03:04:00,
2013-09-29 22:09:00,67.3,56.8,29.94,North,7,0.0,0.0,69,0.00,CLR,,0.00,WeatherDisplay:10.37,2013-09-30 03:09:00,
2013-09-29 22:14:00,67.3,56.4,29.94,North,7,0.0,0.0,68,0.00,CLR,,0.00,WeatherDisplay:10.37,2013-09-30 03:14:00,
2013-09-29 22:19:00,67.1,56.2,29.94,North,7,0.0,0.0,68,0.00,CLR,,0.00,WeatherDisplay:10.37,2013-09-30 03:19:00,
2013-09-29 22:24:00,66.9,56.0,29.94,North,7,0.0,0.0,68,0.00,CLR,,0.00,WeatherDisplay:10.37,2013-09-30 03:24:00,
2013-09-29 22:29:00,66.7,55.4,29.94,North,7,0.0,0.0,67,0.00,CLR,,0.00,WeatherDisplay:10.37,2013-09-30 03:29:00,
2013-09-29 22:34:00,66.9,55.2,29.94,North,7,0.0,0.0,66,0.00,CLR,,0.00,WeatherDisplay:10.37,2013-09-30 03:34:00,
2013-09-29 22:39:00,66.7,54.6,29.94,NNW,346,0.0,0.0,65,0.00,CLR,,0.00,WeatherDisplay:10.37,2013-09-30 03:39:00,
2013-09-29 22:44:00,66.7,54.6,29.94,NNW,346,0.0,0.0,65,0.00,CLR,,0.00,WeatherDisplay:10.37,2013-09-30 03:44:00,
2013-09-29 22:49:00,66.7,54.6,29.94,NNW,346,0.0,0.0,65,0.00,CLR,,0.00,WeatherDisplay:10.37,2013-09-30 03:49:00,
2013-09-29 22:54:00,66.6,55.3,29.94,NW,305,0.0,0.0,67,0.00,CLR,,0.00,WeatherDisplay:10.37,2013-09-30 03:54:00,
2013-09-29 22:59:00,66.6,56.1,29.94,WSW,254,0.0,0.0,69,0.00,CLR,,0.00,WeatherDisplay:10.37,2013-09-30 03:59:00,
2013-09-29 23:01:00,66.6,56.1,29.94,WSW,254,0.0,0.0,69,0.00,CLR,,0.00,WeatherDisplay:10.37,2013-09-30 04:01:00,
2013-09-29 23:03:00,66.6,56.1,29.94,WSW,254,0.0,0.0,69,0.00,CLR,,0.00,WeatherDisplay:10.37,2013-09-30 04:03:00,
2013-09-29 23:08:00,66.0,56.3,29.94,West,273,0.0,0.0,71,0.00,CLR,,0.00,WeatherDisplay:10.37,2013-09-30 04:08:00,
2013-09-29 23:13:00,66.0,56.7,29.94,West,273,0.0,0.0,72,0.00,CLR,,0.00,WeatherDisplay:10.37,2013-09-30 04:13:00,
2013-09-29 23:18:00,66.0,56.7,29.94,West,273,0.0,0.0,72,0.00,CLR,,0.00,WeatherDisplay:10.37,2013-09-30 04:18:00,
2013-09-29 23:23:00,65.8,57.3,29.94,West,273,0.0,0.0,74,0.00,CLR,,0.00,WeatherDisplay:10.37,2013-09-30 04:23:00,
2013-09-29 23:28:00,65.8,57.3,29.94,West,273,0.0,0.0,74,0.00,CLR,,0.00,WeatherDisplay:10.37,2013-09-30 04:28:00,
2013-09-29 23:33:00,65.7,57.9,29.94,West,273,0.0,0.0,76,0.00,CLR,,0.00,WeatherDisplay:10.37,2013-09-30 04:33:00,
2013-09-29 23:38:00,65.7,57.9,29.94,West,273,0.0,0.0,76,0.00,CLR,,0.00,WeatherDisplay:10.37,2013-09-30 04:38:00,
2013-09-29 23:43:00,65.7,57.9,29.94,West,273,0.0,0.0,76,0.00,CLR,,0.00,WeatherDisplay:10.37,2013-09-30 04:43:00,
2013-09-29 23:48:00,65.7,57.9,29.94,West,273,0.0,0.0,76,0.00,CLR,,0.00,WeatherDisplay:10.37,2013-09-30 04:48:00,
2013-09-29 23:54:00,65.7,57.9,29.94,West,273,0.0,0.0,76,0.00,CLR,,0.00,WeatherDisplay:10.37,2013-09-30 04:54:00,
2013-09-29 23:59:00,65.5,56.6,29.91,West,273,0.0,0.0,73,0.00,CLR,,0.00,WeatherDisplay:10.37,2013-09-30 04:59:00,